Flag for United Kingdom Weather past 2 weeks in Darlington, England, United Kingdom

Now
46 °F

Passing clouds.


Feels Like: 44 °F
Forecast: 36 / 51 °F
Wind: 5 mph from Northeast

Location: Tees-Side

Current Time: Apr 18, 2015 at 10:00:08 AM

Latest Report: Apr 18, 2015 at 9:20 AM


Visibility: N/A

Pressure: 30.51 "Hg

Humidity: 82%

Dew point: 41 °F

Location of DarlingtonLocation

Historic Weather in Darlington — Graph

°F

Darlington temperature yesterday

Maximum temperature yesterday: 54 °F (at 11:20 AM)
Minimum temperature yesterday: 37 °F (at 5:50 AM)
Average temperature yesterday: 48 °F

Past Weeks' High & Low Weather Summary

 TemperatureHumidityPressure
High64 °F (Apr 9, 5:20 PM)100% (Apr 3, 1:20 PM)30.60 "Hg (Apr 3, 1:20 PM)
Low34 °F (Apr 13, 6:20 AM)32% (Apr 11, 2:20 PM)29.65 "Hg (Apr 11, 5:50 AM)
Average50 °F69%30.21 "Hg
* Reported Apr 3 8:20 AM — Apr 18 8:50 AM, Darlington, Weather by CustomWeather, © 2015

Note: Actual official high and low records may vary slightly from our data, if they occured in-between our weather recording intervals... More about our weather records

Advertising

Darlington weather history for previous 24 hours

 ConditionsComfort  
Time TempWeatherWind HumidityBarometerVisibility
8:50 AM
Sat, Apr 18
43 °FPassing clouds.3 mph87%30.51 "HgN/A
8:20 AM41 °FPassing clouds.2 mph93%30.48 "HgN/A
7:50 AM39 °FFog.2 mph93%30.48 "Hg3 mi
7:20 AM37 °FPassing clouds.2 mph93%30.48 "Hg3 mi
6:50 AM37 °FFog.2 mph93%30.48 "Hg2 mi
6:20 AM36 °FFog.2 mph93%30.48 "Hg2 mi
5:50 AM34 °FFog.1 mph93%30.45 "Hg1 mi
11:50 PM
Fri, Apr 17
43 °FPassing clouds.7 mph87%30.42 "HgN/A
11:20 PM43 °FPassing clouds.7 mph87%30.42 "HgN/A
10:50 PM43 °FPassing clouds.6 mph87%30.39 "HgN/A
10:20 PM45 °FPassing clouds.6 mph81%30.39 "HgN/A
9:50 PM45 °FPartly cloudy.7 mph81%30.39 "HgN/A
9:20 PM46 °FPassing clouds.6 mph76%30.39 "HgN/A
8:50 PM46 °FScattered clouds.6 mph76%30.36 "HgN/A
8:20 PM46 °FScattered clouds.8 mph82%30.36 "HgN/A
7:50 PM46 °FScattered clouds.10 mph82%30.33 "HgN/A
7:20 PM48 °FScattered clouds.10 mph76%30.33 "HgN/A
6:50 PM50 °FScattered clouds.10 mph67%30.33 "HgN/A
6:20 PM50 °FScattered clouds.12 mph71%30.33 "HgN/A
5:50 PM50 °FScattered clouds.10 mph71%30.30 "HgN/A
5:20 PM50 °FScattered clouds.13 mph71%30.30 "HgN/A
4:50 PM52 °FScattered clouds.14 mph67%30.30 "HgN/A
4:20 PM52 °FPassing clouds.14 mph62%30.30 "HgN/A
3:50 PM52 °FPassing clouds.13 mph62%30.27 "HgN/A
3:20 PM54 °FPassing clouds.14 mph58%30.27 "HgN/A
2:50 PM52 °FPassing clouds.15 mph67%30.27 "HgN/A
2:20 PM52 °FPassing clouds.13 mph62%30.27 "HgN/A
1:50 PM52 °FPassing clouds.15 mph62%30.27 "HgN/A
1:20 PM52 °FPassing clouds.15 mph58%30.24 "HgN/A
12:50 PM52 °FPassing clouds.16 mph58%30.24 "HgN/A
12:20 PM54 °FPassing clouds.16 mph54%30.24 "HgN/A
11:50 AM54 °FPassing clouds.13 mph51%30.24 "HgN/A
11:20 AM54 °FPassing clouds.10 mph58%30.21 "HgN/A
10:50 AM52 °FPassing clouds.10 mph58%30.21 "HgN/A
10:20 AM52 °FPassing clouds.10 mph50%30.21 "HgN/A
Weather by CustomWeather, © 2015

See weather overviewHow to use our weather pages